UMKKEPGD

Guest
Details From UMKK - KHRABROVO
To EPGD - LECH WALESA
Flight Number -
Tags generated
Created
Modified
Stats Distance 80 nm / 148 km
Max Altitude 0 ft / 0 m
Waypoints 2
Social Downloads 2
Likes 0
Share VATSIM

Download

Looking for another format? Having issues loading an existing format? Contact us
Advertisement - Login to hide

Notes

Basic altitude profile: - Ascent Rate: 2500ft/min - Ascent Speed: 250kts - Cruise Altitude: 35000ft - Cruise Speed: 420kts - Descent Rate: 1500ft/min - Descent Speed: 250kts Options: - Use NATs: yes - Use PACOTS: yes - Use low airways: yes - Use high airways: yes

Route

UMKK EPGD

ID Type Via Altitude Latitude Longitude Leg Dist Tot Dist Heading (true) Name
O UMKK APT - 0 ft / 0 m 54.89005˚ 20.59264˚ - 0 nm - KHRABROVO
O EPGD APT - 0 ft / 0 m 54.37617˚ 18.47188˚ 79 nm 79 nm 248° / 246° LECH WALESA

Altitude Profile

Advertisement - Login to hide

UMKK

Details ICAO UMKK (KGD)
Name KHRABROVO
Region Belarus and Russia (Kaliningrad Oblast)
Timezone Europe/Kaliningrad (UTC+2.0)
Stats Elevation 42 ft / 13 m (AMSL)
Location 54.890049° 20.592635°
Runways 1
Magnetic Variation 6.227° E

METAR

UMKK 211830Z 10003MPS CAVOK 15/07 Q1022 R24/60D NOSIG RMK QFE765/1021

Decode

TAF

TAF UMKK 211700Z 2118/2218 02005MPS CAVOK BECMG 2119/2121 09003G08MPS BKN030 TEMPO 2202/2209 4000 -SHRA BR SCT012CB TEMPO 2212/2218 VRB17MPS 2100 -TSRA BKN004 BKN012CB

Decode

Departure Runways

ID Width Length Bearing (true) Bearing (mag) Surface Threshold Offset Overrun Length
06 148 ft / 45 m 8,180 ft / 2,493 m 65.93° 59.70° Concrete 0 ft / 0 m 0 ft / 0 m
24 148 ft / 45 m 8,180 ft / 2,493 m 245.96° 239.73° Concrete 0 ft / 0 m 0 ft / 0 m

EPGD

Details ICAO EPGD (GDN)
Name LECH WALESA
Region Poland
Timezone Europe/Warsaw (UTC+2.0)
Stats Elevation 489 ft / 149 m (AMSL)
Location 54.376167° 18.471884°
Runways 1
Magnetic Variation 5.510° E

METAR

EPGD 211830Z 06010KT CAVOK 14/07 Q1022

Decode

TAF

TAF TAF EPGD 211730Z 2118/2218 07010KT CAVOK BECMG 2121/2124 VRB03KT TEMPO 2206/2218 SHRA BKN035CB PROB40 TEMPO 2212/2218 VRB15G30KT 3000 TSRA

Decode

Destination Runways

ID Width Length Bearing (true) Bearing (mag) Surface Threshold Offset Overrun Length
11 148 ft / 45 m 9,158 ft / 2,791 m 112.96° 107.45° Asphalt 0 ft / 0 m 0 ft / 0 m
29 148 ft / 45 m 9,158 ft / 2,791 m 293.00° 287.49° Asphalt 0 ft / 0 m 0 ft / 0 m

Approach Navaids

Runway Type Ident Frequency Range Bearing (true) Bearing (mag) Slope Elevation
29 Localiser IGDA 110.30 MHz 18 nm / 33 km 292.96° 287.45° - 489 ft / 149 m (AMSL)
29 Glidescope IGDA 110.30 MHz 10 nm / 19 km 292.98° 287.47° 2.90° 489 ft / 149 m (AMSL)
29 DME IGDA 110.30 MHz 18 nm / 33 km - - - 492 ft / 150 m (AMSL)

Popular Alternatives